Regional Weather Roundup
Issued by NWS Cleveland, OH

Home | Current Version | Previous Version | Graphics & Text | Print | Product List | Glossary On
Versions: 1 2 3 4 5 6 7 8 9 10 11 12 13 14 15 16 17 18 19 20 21 22 23 24 25 26 27 28 29 30 31 32 33 34 35 36 37 38 39 40 41 42 43 44 45 46 47 48 49 50
000
ASUS41 KCLE 230510
RWRCLE
OHIO REGIONAL WEATHER ROUNDUP
NATIONAL WEATHER SERVICE CLEVELAND, OH
100 AM EDT FRI JUN 23 2017

NOTE: "FAIR" INDICATES FEW OR NO CLOUDS BELOW 12,000 FEET WITH NO
SIGNIFICANT WEATHER AND/OR OBSTRUCTIONS TO VISIBILITY.

OHZ001>008-015>018-024>027-034-035-043-044-230600-
   NORTHWEST OHIO

CITY           SKY/WX    TMP DP  RH WIND       PRES   REMARKS
DEFIANCE       CLOUDY    74  66  76 S14G22    29.80F
FINDLAY        CLOUDY    75  66  73 S15       29.81F
TOLEDO EXPRESS MOCLDY    74  68  81 S13       29.79F
TOLEDO EXEC    MOCLDY    75  68  78 S10       29.80F
LIMA           MOCLDY    73  68  84 S10       29.82F
$$

OHZ009>014-019>023-028>033-038-089-230600-
   NORTHEAST OHIO

CITY           SKY/WX    TMP DP  RH WIND       PRES   REMARKS
CLE-HOPKINS    MOCLDY    78  66  66 S14       29.84F
CLE-LAKEFRONT  CLEAR     78  65  63 S17       29.81F
CUY CO. ARPT   NOT AVBL
LORAIN-ELYRIA  CLEAR     74  62  66 SW15      29.83F
ASHTABULA      PTCLDY    75  70  84 S13       29.85F
AKRON-CANTON   MOCLDY    75  66  73 SW15      29.89F
WOOSTER        CLOUDY    73  66  78 SW15      29.88F
MANSFIELD      CLOUDY    73  66  78 S14       29.86F
YOUNGSTOWN     CLOUDY    74  68  81 SW12G20   29.88F
$$

OHZ042-051>053-060>062-070>072-077>081-230600-
  SOUTHWEST OHIO

CITY           SKY/WX    TMP DP  RH WIND       PRES   REMARKS
CINC-COVINGTON CLOUDY    71  70  96 S9        29.86F
CINC-LUNKEN    CLOUDY    71 N/A N/A S5        29.87F
HAMILTON       CLOUDY    71  71 100 CALM      29.87F
DAYTON         CLOUDY    71  67  87 S15       29.86F
WRIGHT-PAT AFB CLOUDY    71  70  96 S12       29.86F
DAYTON GENERAL LGT RAIN  70  68  93 S7        29.86F
WILMINGTON     LGT RAIN  69  69 100 S8        29.88F FOG
$$

OHZ036-037-039>041-045>050-054>059-063>069-073>076-082>088-230600-
  CENTRAL AND SOUTHEAST OHIO

CITY           SKY/WX    TMP DP  RH WIND       PRES   REMARKS
COLUMBUS       CLOUDY    72  70  93 S9        29.88F
OSU AIRPORT    CLOUDY    72  69  90 S9        29.87F
BOLTON FIELD   NOT AVBL
RICKENBACK AFB RAIN      69  69 100 S6        29.88F
NEWARK         CLOUDY    72  68  87 S6        29.90F
MARION         MOCLDY    73  66  78 S16       29.86F
LANCASTER      LGT RAIN  71  69  93 CALM      29.91F
ZANESVILLE     LGT RAIN  72  67  84 SE3       29.92F
NEW PHILLY     NOT AVBL
$$




USA.gov is the U.S. government's official web portal to all federal, state and local government web resources and services.